www.pogodaiklimat.ru

Погода и климат >> Архив погоды >> Россия >> Чукотка >> Билибино


ПОГОДА в Билибино

  • Прогноз погоды в Билибино
  • Монитор погоды в Билибино
  • Климат города

АРХИВ ПОГОДЫ в Билибино

Время (UTC), дата Ветер
(напр.,м/с)
 
Видим.   Явления Облачность Т
(С)
Тd
(С)
f
(%)
Тe
(С)
Тes
(С)
Комфортность P
(гПа)
Po
(гПа)
Тmin
(С)
Tmax
(С)
R
(мм)
R24
(мм)
S
(см)
21 20.06 ЮЗ 2
{7}
50 км {ливн. осадки} 9/9 600 м
[Cb cap]
+8.2 +5.6 84 +6 +7 1002.7 969.4 +6.7 5
00 21.06 Ю 1
{4}
50 км {ливн. осадки} 10/10 600 м
[Cb cap]
+10.6 +5.1 69 +10 +10 1003.7 970.6
03 21.06 ЮВ 2
{4}
50 км 10/9 600 м
[Sc Ac As]
+11.8 +4.3 60 +11 +11 1004.0 971.1
06 21.06 ЮВ 2
{5}
50 км 9/8 600 м
[Cu med, cong Ci]
+12.8 +3.4 53 +12 +13 1004.6 971.8
09 21.06 В 3
{3}
50 км 9/8 1000 м
[Sc Ci]
+11.0 +3.0 58 +9 +9 1005.9 972.8 +14.2
12 21.06 СВ 2
{6}
50 км 9/9 1000 м
[Sc]
+7.2 +2.7 73 +5 +5 1007.7 964.1
15 21.06 СВ 2
{7}
50 км 10/3 600 м
[Sc Ci ing]
+5.3 +2.1 80 +3 +3 1008.1 974.2
18 21.06 СВ 4
{6}
50 км 10/0
[Ci ing]
+7.3 +2.5 72 +4 +5 1007.6 974.0
21 21.06 СВ 3
{7}
50 км 10/0
[Ac As Ci ing]
+12.1 +2.7 53 +11 +14 1006.6 973.6 +4.1
00 22.06 Ю 2
{5}
50 км 10/3 600 м
[Cu hum Ac As]
+15.8 +3.4 43 +16 +18 1004.8 972.3
03 22.06 С 1
{4}
50 км 10/8 600 м
[Sc Ac As]
+16.7 +3.8 42 +18 +18 1003.7 971.3
06 22.06 Ю 3
{6}
50 км 10/1 1000 м
[Sc Ac As]
+14.4 +7.3 62 +14 +15 1004.0 971.3
09 22.06 Ю 3
{6}
10 км слабый дождь 10/3 600 м
[Sc As op]
+9.5 +8.9 96 +7 +7 1005.4 972.2 +17.2 2
12 22.06 Ю 3
{6}
10 км слабый дождь 10/6 600 м
[Sc As op]
+7.9 +7.3 96 +5 +5 1006.5 973.1
15 22.06 Ю 2
{5}
10 км слабый дождь 10/8 600 м
[Sc As op]
+6.8 +6.6 99 +4 +4 1006.9 973.4
18 22.06 З 2
{4}
50 км {дождь} 10/6 600 м
[Sc Ac und]
+7.5 +6.2 91 +5 +6 1007.9 974.4
21 22.06 ЮЗ 3
{5}
50 км 9/8 600 м
[Cu med, cong Ci ing]
+10.8 +6.4 74 +9 +10 1008.1 974.9 +6.8 3
00 23.06 СЗ 3
{8}
50 км 6/6 600 м
[Cu med, cong]
+15.3 +4.6 49 +15 +19 1007.1 974.4
03 23.06 ЮЗ 5
{9}
50 км 4/4 600 м
[Cu hum]
+17.7 +2.3 36 +17 +20 1005.7 973.3
06 23.06 З 3
{9}
50 км 1/1 600 м
[Cu hum]
+19.0 -1.4 25 +19 +23 1004.4 972.2
09 23.06 ЮЗ 2
{7}
50 км 1/0
[Ac trans]
+18.2 +2.5 35 +19 +20 1003.6 971.3 +19.2
12 23.06 штиль 0
{3}
50 км 6/3 600 м
[Sc Ci fib]
+7.1 +5.8 91 +6 +6 1004.6 971.1
15 23.06 штиль 0
{1}
50 км 6/0
[Ci fib]
+2.9 +2.4 97 +2 +2 1004.3 970.2
18 23.06 штиль 0
{1}
50 км 9/5 1000 м
[Sc Ac lent Ci]
+10.4 +4.3 66 +10 +11 1001.7 968.6
21 23.06 С 2
{3}
50 км 9/9 600 м
[Sc]
+16.6 +7.7 56 +17 +18 999.4 967.2 +2.8
00 24.06 ЮЗ 6
{9}
50 км 9/5 600 м
[Cu Sc Ac trans Cs]
+22.1 +6.4 36 +23 +24 комфорт 997.0 965.4
03 24.06 ЮЗ 5
{11}
50 км 9/6 600 м
[Cu Sc Ac trans Cs]
+22.1 +5.6 34 +23 +24 комфорт 995.8 964.3
06 24.06 ЮЗ 4
{10}
50 км 10/3 600 м
[Cu med, cong Ac As]
+21.5 +5.5 35 +22 +23 комфорт 995.3 963.7
09 24.06 СЗ 1
{10}
10 км слабый дождь 10/3 600 м
[Cu med, cong As op]
+14.9 +12.0 83 +15 +15 997.3 964.9 +23.0 2
12 24.06 штиль 0
{4}
4000 м дождь 10/3 1000 м
[Sc As op]
+12.2 +11.9 98 +12 +12 997.7 965.1
15 24.06 З 5
{9}
4000 м дождь 10/3 1000 м
[Sc As op]
+10.8 +9.0 89 +8 +8 998.8 965.9
18 24.06 СВ 6-10
{11}
4000 м дождь 10/0
[As op]
+4.7 +3.0 89 -1 -1 1003.4 969.7
21 24.06 СВ 5
{11}
4000 м дождь 10/0
[As op]
+3.7 +1.9 88 -1 -1 1007.1 973.1 +3.5 14
00 25.06 СВ 5
{9}
50 км {дождь} 10/8 600 м
[Sc Ac und]
+4.9 -0.1 70 +1 +1 1008.9 975.0
03 25.06 СВ 4
{8}
50 км 10/8 600 м
[Sc Ac und]
+6.1 -1.1 60 +3 +3 1010.1 976.3
06 25.06 СВ 5
{9}
50 км 10/9 600 м
[Sc Ac und]
+5.4 -1.7 60 +1 +1 1011.1 977.1
09 25.06 СВ 6
{10}
50 км 10/10 600 м
[Sc]
+3.7 -3.6 59 -1 -1 1013.1 978.8 +6.5 0.1
12 25.06 СВ 4
{9}
50 км 10/10 1000 м
[Sc]
+2.2 -3.8 64 -2 -2 1014.0 979.5
15 25.06 СВ 2
{7}
50 км 10/10 1000 м
[Sc]
+1.7 -4.9 62 -1 -1 1013.6 979.1
18 25.06 СВ 1
{4}
50 км 10/9 1000 м
[Sc Ac und]
+2.9 -4.7 57 +2 +2 1013.5 979.1
21 25.06 З 2
{4}
50 км 10/10 1000 м
[Sc]
+4.2 -4.8 52 +2 +2 1012.4 978.3 +1.7
00 26.06 З 3
{7}
50 км 9/8 1000 м
[Sc Ac trans]
+7.7 -4.1 43 +6 +7 1010.4 976.7
03 26.06 СЗ 3
{8}
50 км 8/8 600 м
[Cu hum]
+10.3 -3.0 39 +9 +10 1008.1 974.8
06 26.06 СЗ 3
{9}
50 км 4/3 600 м
[Cu hum Ci ing]
+10.6 -3.6 37 +9 +12 1006.8 973.5
09 26.06 З 2
{9}
50 км 8/5 1000 м
[Sc Ci ing]
+9.8 -3.0 40 +9 +9 1005.9 972.6 +11.4
12 26.06 штиль 0
{4}
50 км 9/4 1000 м
[Sc Ac trans]
+0.4 -1.0 90 -1 -1 1006.4 972.0
15 26.06 штиль 0
{1}
50 км 9/9 1000 м
[Sc]
+2.5 +1.2 91 +1 +1 1005.5 971.3
18 26.06 Ю 1
{2}
50 км 10/10 1000 м
[Sc]
+5.9 +1.9 75 +5 +5 1004.2 970.5
21 26.06 Ю 1
{2}
50 км 10/10 1000 м
[Sc]
+8.4 0.0 55 +8 +8 1003.7 970.4 -0.2
00 27.06 ЮЗ 1
{4}
50 км 10/10 1000 м
[Sc]
+11.4 +1.1 49 +12 +12 1003.1 970.1
03 27.06 С 3
{6}
50 км 9/9 600 м
[Cb calv]
+14.1 +3.2 48 +13 +14 1002.9 970.3
06 27.06 СВ 3
{6}
50 км 10/10 600 м
[Sc diur, vesp]
+13.6 +2.3 46 +13 +13 1003.8 971.0
09 27.06 С 4
{6}
50 км 9/9 600 м
[Sc]
+12.5 +3.6 55 +11 +11 1005.0 972.1 +14.4
12 27.06 С 3
{6}
50 км ясно +6.9 +3.3 78 +4 +4 1006.3 972.8
15 27.06 штиль 0
{4}
50 км ясно +3.2 +2.4 94 +2 +2 1007.2 973.2
18 27.06 СВ 2
{5}
50 км ясно +8.1 +2.9 70 +6 +8 1006.3 972.9

 

Местоположение метеостанции Билибино (Чукотка, Россия): широта 68.05 долгота 166.40 высота над уровнем моря 280 м.

В архиве по умолчанию представлена погода в Билибино за последнюю неделю. Архивные данные за месяц целиком и за предыдущие месяцы, начиная с января 2011 года, Вы можете получить, выбрав интересующий диапазон дат из раскрывающегося списка и нажав кнопку "Ввод!".

Внимание! Время в таблицах - всемирное. Для получения местного времени необходимо прибавить поправку, которая в Билибино равна 12 ч.

Смотрите также архив погоды в соседних городах и на ближайших метеорологических станциях:

Погода на Островном (Чукотка, Россия) (96 км)
Погода в Илирнее (Чукотка, Россия) (109 км)
Погода в Раучуе (Чукотка, Россия) (161 км)
Погода в Баимке (Чукотка, Россия) (194 км)
Погода в Чауне (Чукотка, Россия) (198 км)
Погода в Анюйске (Чукотка, Россия) (205 км)
Погода на Айон Острове (Чукотка, Россия) (217 км)
Погода в Константиновской (Чукотка, Россия) (220 км)
Погода в Черском (Якутия, Россия) (222 км)
Погода в Певеке (Чукотка, Россия) (238 км)

Пояснения к столбцам:

Ветер - указаны скорость ветра в м/с - средняя за 10 мин, порывы в срок и между сроками (в фигурных скобках) и направление, откуда дует ветер: С - северный, СВ - северо-восточный, В - восточный, ЮВ - юго-восточный, Ю - южный, ЮЗ - юго-западный, З - западный, СЗ - северо-западный.
Видимость - горизонтальная дальность видимости в метрах или километрах. При видимости от 1 до 10 км при отсутствии осадков обычно наблюдается дымка, при ухудшении видимости до 1 км и менее - туман. В сухую погоду видимость может ухудшаться дымом, пылью или мглою.
Явления - указаны атмосферные явления, наблюдавшиеся в срок или в последний час перед сроком; фигурными скобками обозначены явления, наблюдавшиеся между сроками (за 1-3 часа до срока); квадратными скобками обозначены град или гололедные отложения с указанием их диаметра в мм.
Облачность - указаны через наклонную черту общая и нижняя облачность в баллах и высота нижней границы облаков в метрах; квадратными скобками обозначены формы облаков: Ci - перистые, Cs - перисто-слоистые, Cc - перисто-кучевые, Ac - высококучевые, As - высокослоистые, Sc - слоисто-кучевые, Ns - слоисто-дождевые, Cu - кучевые, Cb - кучево-дождевые. Подробнее классификацию облаков см. в Атласе облаков (PDF).
T - Температура воздуха - температура, измеренная на высоте 2 м над землей.
Td - Температура точки росы - температура, при понижении до которой содержащийся в воздухе водяной пар достигнет насыщения.
f - Относительная влажность воздуха - влажноcть воздуха, измеренная на высоте 2 м над землей.
Te - Эффективная температура - температура, которую ощущает одетый по сезону человек в тени. Характеристика душности погоды. При расчете учитывается влияние влажности воздуха и скорости ветра на теплоощущения человека.
Tes - Эффективная температура на солнце - температура, которую ощущает человек, с поправкой на солнечный нагрев. Характеристика знойности погоды. Зависит от высоты солнца над горизонтом, облачности и скорости ветра. Ночью, в пасмурную погоду, а также при ветре 12 м/с и более поправка равна нулю.
P - Атмосферное давление - приведенное к уровню моря атмосферное давление.
Po - Атмосферное давление - измеренное на уровне метеостанции атмосферное давление.
Tmin - Минимальная температура - минимум температуры воздуха на высоте 2 м над землей.
Tmax - Максимальная температура - максимум температуры воздуха на высоте 2 м над землей.
R - Количество осадков - Количество выпавших осадков за период времени, мм. При наведении курсора мыши на число - период времени, за который выпало указанное количество осадков.
R24 - Количество осадков - Количество выпавших осадков за 24 часа, мм.
S - Снежный покров - Высота снежного покрова, см. При наведении курсора мыши на число - состояние снежного покрова и степень покрытия местности в баллах.